Date String (YYYY-MM-DD hh:mm:ss) UTC,Instrument flags,Ambient pressure (hPa),Sample flow (lpm),Bypass flow (lpm),Sample temperature (°C),Ambient temperature (°C),ASC tube jacket temperature (°C),LED temperature (°C),Box temperature (°C),Sample RH (%),Span deviation,Mass concentration (μg/m³),Mass concentration (μg/m³),Mass concentration (μg/m³)
DateTimeUTC,F1_M11,P_M11,Q1_M11,Q2_M11,T1_M11,T2_M11,T3_M11,T4_M11,T5_M11,U1_M11,ZSPAN_M11,X0_M11,X2_M11,X1_M11
2022-03-01 20:00:00,,0828.8,4.99,0.00,29.9,29.2,00.0,38.7,31.7,09.4,0000.0,0009.92,0003.00,0001.55
2022-03-01 20:01:00,,0828.7,5.00,0.00,29.9,29.3,00.0,38.7,31.7,08.7,0000.0,0010.05,0003.08,0001.59
2022-03-01 20:02:00,,0828.7,5.00,0.00,29.9,29.3,00.0,38.7,31.7,08.6,0000.0,0009.77,0003.13,0001.61
2022-03-01 20:03:00,,0828.7,5.00,0.00,29.9,29.3,00.0,38.7,31.7,08.9,0000.0,0010.74,0003.15,0001.64
2022-03-01 20:04:00,,0828.7,4.99,0.00,29.9,29.3,00.0,38.8,31.7,08.9,0000.0,0010.30,0003.17,0001.65
2022-03-01 20:05:00,,0828.8,5.03,0.00,29.9,29.3,00.0,38.8,31.8,08.6,0000.0,0010.86,0003.22,0001.67
2022-03-01 20:06:00,,0828.7,4.99,0.00,30.0,29.4,00.0,38.8,31.8,08.5,0000.0,0011.12,0003.26,0001.71
2022-03-01 20:07:00,,0828.7,5.01,0.00,30.0,29.4,00.0,38.8,31.8,08.7,0000.0,0011.59,0003.26,0001.73
2022-03-01 20:08:00,,0828.7,4.99,0.00,30.0,29.4,00.0,38.8,31.8,08.6,0000.0,0011.88,0003.30,0001.76
2022-03-01 20:09:00,,0828.7,5.01,0.00,30.0,29.5,00.0,38.9,31.8,08.6,0000.0,0012.30,0003.32,0001.83
2022-03-01 20:10:00,,0828.7,5.00,0.00,30.1,29.5,00.0,38.9,31.9,08.5,0000.0,0012.30,0003.35,0001.89
2022-03-01 20:11:00,,0828.7,5.00,0.00,30.1,29.5,00.0,38.9,31.9,08.7,0000.0,0012.18,0003.37,0001.94
2022-03-01 20:12:00,,0828.7,5.01,0.00,30.1,29.6,00.0,38.9,32.0,09.1,0000.0,0012.68,0003.35,0001.94
2022-03-01 20:13:00,,0828.7,4.99,0.00,30.2,29.6,00.0,39.0,32.0,08.7,0000.0,0013.91,0003.38,0002.01
2022-03-01 20:14:00,,0828.6,5.01,0.00,30.2,29.6,00.0,39.0,32.0,08.5,0000.0,0013.21,0003.47,0002.13
2022-03-01 20:15:00,,0828.7,4.99,0.00,30.2,29.6,00.0,39.0,32.0,08.6,0000.0,0014.15,0003.57,0002.26
2022-03-01 20:16:00,,0828.7,4.99,0.00,30.2,29.6,00.0,39.0,32.0,08.4,0000.0,0014.35,0003.64,0002.37
2022-03-01 20:17:00,,0828.8,5.01,0.00,30.2,29.6,00.0,39.0,32.0,08.1,0000.0,0014.61,0003.70,0002.45
2022-03-01 20:18:00,,0828.9,4.98,0.00,30.3,29.7,00.0,39.1,32.0,08.3,0000.0,0014.26,0003.76,0002.51
2022-03-01 20:19:00,,0828.7,5.01,0.00,30.3,29.7,00.0,39.1,32.0,08.2,0000.0,0014.81,0003.85,0002.59
2022-03-01 20:20:00,,0828.7,5.01,0.00,30.3,29.7,00.0,39.1,32.1,08.2,0000.0,0014.58,0003.91,0002.62
2022-03-01 20:21:00,,0828.7,4.99,0.00,30.3,29.7,00.0,39.1,32.1,08.1,0000.0,0015.14,0003.97,0002.66
2022-03-01 20:22:00,,0828.7,5.00,0.00,30.3,29.7,00.0,39.2,32.1,08.2,0000.0,0015.93,0004.00,0002.71
2022-03-01 20:23:00,,0828.8,4.99,0.00,30.4,29.7,00.0,39.2,32.1,08.5,0000.0,0016.03,0004.10,0002.77
2022-03-01 20:24:00,,0828.7,5.00,0.00,30.4,29.8,00.0,39.2,32.1,08.9,0000.0,0014.78,0004.07,0002.72
2022-03-01 20:25:00,,0828.6,5.00,0.00,30.4,29.8,00.0,39.2,32.1,09.0,0000.0,0014.22,0003.98,0002.59
2022-03-01 20:26:00,,0828.6,4.99,0.00,30.4,29.8,00.0,39.2,32.2,08.9,0000.0,0013.51,0003.86,0002.45
2022-03-01 20:27:00,,0828.7,5.01,0.00,30.4,29.8,00.0,39.3,32.2,09.1,0000.0,0012.30,0003.73,0002.32
2022-03-01 20:28:00,,0828.9,4.98,0.00,30.4,29.8,00.0,39.3,32.2,08.4,0000.0,0011.71,0003.60,0002.18
2022-03-01 20:29:00,,0828.7,5.02,0.00,30.4,29.8,00.0,39.3,32.2,08.5,0000.0,0011.67,0003.57,0002.08
2022-03-01 20:30:00,,0828.7,4.99,0.00,30.5,29.6,00.0,39.3,32.1,08.0,0000.0,0010.40,0003.47,0002.00
2022-03-01 20:31:00,,0828.8,5.01,0.00,30.5,29.5,00.0,39.4,32.1,08.0,0000.0,0010.17,0003.43,0001.95
2022-03-01 20:32:00,,0828.8,4.99,0.00,30.5,29.4,00.0,39.4,32.1,08.2,0000.0,0010.40,0003.39,0001.90
2022-03-01 20:33:00,,0828.6,4.99,0.00,30.5,28.2,00.0,39.4,31.8,08.0,0000.0,0009.77,0003.38,0001.85
2022-03-01 20:34:00,,0828.8,5.01,0.00,30.3,26.2,00.0,39.3,31.4,08.2,0000.0,0009.43,0003.32,0001.84
2022-03-01 20:35:00,,0828.6,4.99,0.00,30.1,25.8,00.0,39.2,31.3,08.2,0000.0,0009.84,0003.39,0001.90
2022-03-01 20:36:00,,0828.8,5.01,0.00,30.0,26.2,00.0,39.2,31.3,08.1,0000.0,0010.28,0003.47,0001.98
2022-03-01 20:37:00,,0828.6,4.99,0.00,29.9,26.7,00.0,39.1,31.3,08.2,0000.0,0010.56,0003.55,0002.08
2022-03-01 20:38:00,,0828.7,4.99,0.00,29.9,27.2,00.0,39.0,31.4,08.2,0000.0,0010.64,0003.60,0002.14
2022-03-01 20:39:00,,0828.6,5.01,0.00,29.9,27.6,00.0,39.0,31.4,08.7,0000.0,0010.68,0003.64,0002.15
2022-03-01 20:40:00,,0828.8,4.98,0.00,29.9,27.9,00.0,38.9,31.5,08.9,0000.0,0010.54,0003.59,0002.11
2022-03-01 20:41:00,,0829.0,5.02,0.00,29.9,28.2,00.0,38.9,31.5,08.9,0000.0,0010.57,0003.55,0002.08
2022-03-01 20:42:00,,0829.1,4.98,0.00,29.9,28.4,00.0,38.9,31.6,08.8,0000.0,0010.47,0003.51,0002.02
2022-03-01 20:43:00,,0829.0,5.01,0.00,29.9,28.6,00.0,38.9,31.6,08.9,0000.0,0009.56,0003.42,0001.95
2022-03-01 20:44:00,,0828.9,4.99,0.00,29.9,28.7,00.0,38.9,31.7,08.8,0000.0,0008.99,0003.30,0001.88
2022-03-01 20:45:00,,0829.0,4.99,0.00,29.9,28.8,00.0,38.9,31.7,08.7,0000.0,0008.85,0003.24,0001.82
2022-03-01 20:46:00,,0829.0,5.02,0.00,30.0,28.9,00.0,38.9,31.7,09.1,0000.0,0008.47,0003.15,0001.75
2022-03-01 20:47:00,,0829.1,4.99,0.00,30.0,29.0,00.0,38.9,31.8,08.7,0000.0,0008.02,0003.02,0001.69
2022-03-01 20:48:00,,0829.1,5.01,0.00,30.0,29.0,00.0,38.9,31.8,08.9,0000.0,0007.94,0002.85,0001.62
2022-03-01 20:49:00,,0828.9,5.00,0.00,30.0,29.1,00.0,38.9,31.8,08.9,0000.0,0007.97,0002.71,0001.56
2022-03-01 20:50:00,,0829.0,5.00,0.00,30.1,29.2,00.0,38.9,31.8,09.1,0000.0,0008.01,0002.71,0001.53
2022-03-01 20:51:00,,0829.0,5.01,0.00,30.1,29.2,00.0,39.0,31.9,09.0,0000.0,0008.08,0002.79,0001.58
2022-03-01 20:52:00,,0828.7,4.98,0.00,30.1,29.3,00.0,39.0,31.9,09.0,0000.0,0008.15,0002.81,0001.62
2022-03-01 20:53:00,,0828.5,5.01,0.00,30.1,29.3,00.0,39.0,32.0,09.2,0000.0,0007.98,0002.84,0001.65
2022-03-01 20:54:00,,0828.8,4.99,0.00,30.2,29.4,00.0,39.0,32.0,09.0,0000.0,0008.62,0002.92,0001.69
2022-03-01 20:55:00,,0828.7,4.99,0.00,30.2,29.4,00.0,39.0,32.0,08.8,0000.0,0009.30,0003.04,0001.72
2022-03-01 20:56:00,,0829.1,5.01,0.00,30.2,29.4,00.0,39.1,32.0,08.8,0000.0,0009.30,0003.07,0001.75
2022-03-01 20:57:00,,0828.7,4.99,0.00,30.2,29.5,00.0,39.1,32.0,08.9,0000.0,0009.18,0003.11,0001.79
2022-03-01 20:58:00,,0828.5,5.01,0.00,30.2,29.5,00.0,39.1,32.0,08.7,0000.0,0009.66,0003.12,0001.81
2022-03-01 20:59:00,,0828.6,5.00,0.00,30.2,29.5,00.0,39.1,32.0,08.6,0000.0,0009.96,0003.13,0001.84
